[[{"header":{"parameterUnit":"m.s-1","parameterCategory":1,"la1":30.2991,"la2":30.254,"lo1":-89.0895,"lo2":-89.0444,"dy":0.0017,"dx":0.0017,"nx":28,"ny":28,"refTime":"2024-06-12T09:00:00:Z","depth":0,"parameterNumber":2,"parameterNumberName":"U-component_of_WINDS"},"data":[0,0,0,0,0,0,0,0,0,0,0,0,0,0,0,0,0,0,0,0,0,0,0,0,0,0,0,0,0,0,0,0,0,0,0,0,0,0,0,0,0,0,0,0,0,0,0,0,0,0,0,0,0,0,0,0,0,0,-1.8619,-1.862,0,-1.8632,-1.8633,-1.8633,-1.8571,-1.8569,-1.8567,-1.8566,-1.8577,-1.8579,-1.8581,0,0,0,0,0,0,0,0,0,0,0,0,0,-1.8539,-1.8541,-1.8619,-1.862,-1.862,-1.8632,-1.8633,-1.8633,-1.8571,-1.8569,-1.8567,-1.8565,-1.8576,-1.8578,-1.8581,0,0,0,0,0,0,0,0,0,0,0,0,0,-1.8565,-1.8542,-1.8619,-1.8591,-1.8588,-1.8632,-1.8633,-1.8633,-1.8572,-1.8569,-1.8566,-1.8564,-1.8575,-1.8578,-1.8581,-1.8653,0,0,-1.859,-1.8591,0,0,0,0,0,0,0,0,-1.8564,-1.8568,-1.8595,-1.8593,-1.859,-1.8597,-1.8608,-1.8639,-1.8572,-1.8578,-1.8566,-1.8563,-1.8586,-1.8587,-1.8596,-1.8653,-1.8654,-1.859,-1.8592,-1.8593,-1.8594,0,0,0,0,0,0,0,-1.8562,-1.8567,-1.8624,-1.8595,-1.8592,-1.8576,-1.8577,-1.8614,-1.8596,-1.8577,-1.8573,-1.8575,-1.8584,-1.8593,-1.8595,-1.8654,-1.859,-1.8593,-1.8595,-1.8596,-1.8771,-1.8773,0,0,0,0,0,0,-1.8564,-1.8566,-1.8624,-1.8625,-1.857,-1.858,-1.8581,-1.8598,-1.8596,-1.8593,-1.8578,-1.8572,-1.8589,-1.8592,-1.8596,-1.8679,-1.8593,-1.8596,-1.8598,-1.8768,-1.8771,-1.8774,0,0,0,0,0,0,-1.8563,-1.857,-1.8623,-1.8594,-1.86,-1.8584,-1.8604,-1.8599,-1.8609,-1.8596,-1.8593,-1.859,-1.8587,-1.8592,-1.8639,-1.8679,-1.8597,-1.86,-1.8764,-1.8769,-1.8773,-1.8847,0,0,0,0,0,0,-1.8561,-1.857,-1.8598,-1.8595,-1.8602,-1.8667,-1.8606,-1.8602,-1.8614,-1.8607,-1.8607,-1.8605,-1.8586,-1.8635,-1.8642,-1.8681,-1.8602,-1.8761,-1.8766,-1.8771,-1.8841,-1.8854,-1.8864,0,0,0,0,0,-1.8558,-1.8617,-1.8599,-1.8607,-1.8636,-1.867,-1.8673,-1.8651,-1.8618,-1.8645,-1.8637,-1.8605,-1.8674,-1.864,-1.8648,-1.8689,-1.8758,-1.8765,-1.8771,-1.8836,-1.8851,-1.8864,0,0,0,0,0,0,-1.8623,-1.8617,-1.8596,-1.8657,-1.8665,-1.8659,-1.8693,-1.8668,-1.8684,-1.8677,-1.8648,-1.8648,-1.8701,-1.8699,-1.8663,-1.8758,-1.871,-1.8718,-1.8757,-1.8771,-1.8782,-1.8781,-1.8605,0,0,0,0,0,-1.8645,-1.8674,-1.8666,-1.872,-1.8725,-1.8709,-1.8723,-1.8705,-1.8711,-1.8714,-1.8709,-1.8716,-1.8739,-1.8755,-1.8776,-1.8841,-1.884,-1.8873,-1.8884,-1.8894,-1.8901,-1.8935,-1.895,-1.8796,-1.8796,-1.8795,0,0,-1.8689,-1.8689,-1.8709,-1.8733,-1.8737,-1.8767,-1.8712,-1.8746,-1.8767,-1.8719,-1.8763,-1.8761,-1.8766,-1.8823,-1.8848,-1.8824,-1.8943,-1.8902,-1.891,-1.8912,-1.8943,-1.8958,-1.8971,-1.88,-1.8799,-1.8799,0,0,-1.8785,-1.8789,-1.8834,-1.8839,-1.8847,-1.8835,-1.8846,-1.8846,-1.8842,-1.8887,-1.8851,-1.8876,-1.8917,-1.8922,-1.8931,-1.903,-1.9001,-1.9038,-1.9098,-1.9132,-1.9144,-1.9154,-1.9189,-1.9202,-1.9045,-1.9045,-1.9046,0,-1.8839,-1.8884,-1.886,-1.8897,-1.8908,-1.8867,-1.8913,-1.8919,-1.8932,-1.8941,-1.8913,-1.8964,-1.8965,-1.9022,-1.9047,-1.9055,-1.9066,-1.9037,-1.9144,-1.9154,-1.9164,-1.9197,-1.921,-1.905,-1.9049,-1.9049,-1.9048,0,-1.895,-1.8981,-1.9017,-1.9032,-1.9048,-1.9089,-1.9071,-1.9089,-1.907,-1.9062,-1.9108,-1.9108,-1.9128,-1.914,-1.9122,-1.9195,-1.918,-1.9149,-1.91,-1.9183,-1.9214,-1.9227,-1.9056,-1.9054,-1.9053,-1.9052,0,0,-1.9086,-1.9089,-1.9102,-1.9108,-1.9114,-1.9137,-1.9176,-1.9197,-1.9213,-1.9224,-1.9256,-1.9291,-1.9263,-1.9272,-1.9254,-1.9284,-1.9363,-1.9249,-1.9249,-1.927,-1.9444,-1.9467,-1.9482,-1.9344,-1.9346,-1.9348,-1.9443,0,-1.918,-1.9247,-1.9228,-1.9295,-1.9324,-1.9286,-1.932,-1.9326,-1.932,-1.9343,-1.9335,-1.9361,-1.9322,-1.9327,-1.9355,-1.9347,-1.9397,-1.934,-1.9372,-1.9374,-1.9372,-1.9498,-1.9522,-1.9611,-1.9455,-1.9457,-1.9458,0,-1.9298,-1.9315,-1.9386,-1.9387,-1.9398,-1.9429,-1.9447,-1.9469,-1.9476,-1.9469,-1.9481,-1.9457,-1.9494,-1.9446,-1.9498,-1.9459,-1.9471,-1.947,-1.9473,-1.9474,-1.9421,-1.9502,-1.9639,-1.9653,-1.9477,-1.9476,-1.9474,0,-1.939,-1.943,-1.9478,-1.9485,-1.9487,-1.951,-1.9512,-1.9516,-1.953,-1.9545,-1.9554,-1.9573,-1.9583,-1.9598,-1.958,-1.9547,-1.9634,-1.9584,-1.9629,-1.9629,-1.9648,-1.9647,-1.9789,-1.9657,-1.9657,-1.9657,-1.9657,0,-1.9496,-1.9541,-1.9519,-1.9548,-1.9597,-1.9574,-1.9623,-1.9621,-1.9625,-1.9653,-1.9621,-1.9647,-1.9621,-1.9645,-1.9631,-1.9676,-1.9681,-1.9676,-1.9671,-1.9678,-1.9679,-1.9685,-1.9678,-1.966,-1.966,-1.9659,-1.9658,0,-1.9606,-1.9594,-1.9643,-1.9642,-1.9643,-1.9679,-1.9678,-1.9705,-1.9696,-1.9732,-1.9739,-1.9725,-1.9752,-1.9736,-1.9762,-1.9753,-1.9811,-1.9798,-1.9809,-1.9805,-1.985,-1.9846,-2.0,-2.0019,-1.9877,-1.9878,-1.9879,0,-1.9675,-1.9708,-1.9712,-1.9729,-1.9733,-1.976,-1.9775,-1.9754,-1.977,-1.9781,-1.9806,-1.983,-1.9848,-1.9893,-1.9885,-1.9905,-1.9892,-1.9945,-1.9895,-1.9901,-1.9892,-1.989,-1.9893,-1.9955,-1.9956,-1.9958,-1.9959,0,-1.9797,-1.979,-1.9812,-1.9833,-1.9851,-1.9866,-1.9878,-1.9894,-1.9873,-1.9892,-1.992,-1.9934,-1.9962,-1.9986,-2.0004,-2.0005,-1.9978,-1.9975,-1.9986,-1.9993,-1.9998,-1.9995,-1.9836,-1.9971,-1.997,-1.9969,-1.9968,-1.9968,-1.9888,-1.9916,-1.9923,-1.995,-1.9957,-1.9969,-1.9995,-1.999,-2.0013,-2.0035,-2.0021,-2.0053,-2.006,-2.008,-2.0085,-2.011,-2.0088,-2.0105,-2.0108,-2.0113,-2.0119,-1.9995,-2.0113,-2.0112,-2.0112,-2.0112,-2.0111,0,-2.0008,-2.0011,-2.0036,-2.0055,-2.0075,-2.005,-2.0063,-2.0081,-2.0111,-2.0119,-2.0138,-2.017,-2.0194,-2.0188,-2.021,-2.023,-2.0219,-2.0236,-2.0234,-2.0235,-2.0137,-2.0125,-2.0245,-2.0245,-2.0245,-2.0245,-2.0245,-2.0245,-2.0073,-2.012,-2.0113,-2.0163,-2.0165,-2.0198,-2.0207,-2.0218,-2.0225,-2.0263,-2.0282,-2.0279,-2.0282,-2.0304,-2.0324,-2.0322,-2.0331,-2.0353,-2.0346,-2.0255,-2.0242,-2.0229,-2.0217,-2.0355,-2.0356,-2.0442,-2.0443,-2.0443]},{"header":{"parameterUnit":"m.s-1","parameterCategory":1,"la1":30.2991,"la2":30.254,"lo1":-89.0895,"lo2":-89.0444,"dy":0.0017,"dx":0.0017,"nx":28,"ny":28,"refTime":"2024-06-12T09:00:00:Z","depth":0,"parameterNumber":3,"parameterNumberName":"V-component_of_WINDS"},"data":[0,0,0,0,0,0,0,0,0,0,0,0,0,0,0,0,0,0,0,0,0,0,0,0,0,0,0,0,0,0,0,0,0,0,0,0,0,0,0,0,0,0,0,0,0,0,0,0,0,0,0,0,0,0,0,0,0,0,-2.7407,-2.7408,0,-2.7516,-2.7518,-2.7519,-2.7537,-2.7536,-2.7535,-2.7534,-2.7639,-2.7642,-2.7646,0,0,0,0,0,0,0,0,0,0,0,0,0,-2.7207,-2.721,-2.7407,-2.7408,-2.741,-2.7516,-2.7518,-2.7519,-2.7537,-2.7536,-2.7535,-2.7534,-2.7637,-2.7642,-2.7646,0,0,0,0,0,0,0,0,0,0,0,0,0,-2.7302,-2.7211,-2.7407,-2.7432,-2.7435,-2.7516,-2.7518,-2.752,-2.7537,-2.7536,-2.7535,-2.7533,-2.7636,-2.7641,-2.7647,-2.7708,0,0,-2.7663,-2.7666,0,0,0,0,0,0,0,0,-2.7297,-2.731,-2.7427,-2.743,-2.7434,-2.7512,-2.7485,-2.7582,-2.7538,-2.7498,-2.7534,-2.7533,-2.7597,-2.7606,-2.7629,-2.7713,-2.7717,-2.7664,-2.7667,-2.7669,-2.7671,0,0,0,0,0,0,0,-2.729,-2.7305,-2.745,-2.7428,-2.7433,-2.7435,-2.7447,-2.7504,-2.7554,-2.7502,-2.7503,-2.7516,-2.7599,-2.7624,-2.7631,-2.7719,-2.7664,-2.7668,-2.7672,-2.7674,-2.7859,-2.786,0,0,0,0,0,0,-2.728,-2.7299,-2.7446,-2.7453,-2.7361,-2.744,-2.7453,-2.7488,-2.7553,-2.7562,-2.7517,-2.7517,-2.7615,-2.7625,-2.7635,-2.7711,-2.7669,-2.7675,-2.7678,-2.7857,-2.7859,-2.7861,0,0,0,0,0,0,-2.7276,-2.7293,-2.7442,-2.7377,-2.7396,-2.7445,-2.7484,-2.7491,-2.7516,-2.7565,-2.7574,-2.7534,-2.7614,-2.7627,-2.769,-2.7715,-2.7677,-2.7682,-2.7855,-2.7858,-2.786,-2.7864,0,0,0,0,0,0,-2.727,-2.7291,-2.7317,-2.7377,-2.74,-2.7497,-2.7485,-2.7494,-2.7526,-2.7526,-2.7583,-2.7591,-2.7614,-2.7682,-2.7696,-2.7722,-2.7686,-2.7853,-2.7856,-2.7859,-2.7862,-2.7866,-2.787,0,0,0,0,0,-2.7263,-2.7311,-2.7318,-2.7335,-2.7433,-2.7499,-2.7511,-2.7539,-2.7528,-2.7553,-2.7585,-2.7589,-2.7711,-2.7688,-2.7704,-2.7732,-2.7851,-2.7855,-2.7859,-2.786,-2.7865,-2.787,0,0,0,0,0,0,-2.7249,-2.732,-2.7328,-2.7398,-2.7443,-2.7502,-2.7534,-2.7544,-2.759,-2.7588,-2.7618,-2.7631,-2.7692,-2.7718,-2.7692,-2.7795,-2.778,-2.7787,-2.7775,-2.7781,-2.7785,-2.7777,-2.7691,0,0,0,0,0,-2.7255,-2.7305,-2.7363,-2.742,-2.7442,-2.7484,-2.7514,-2.7532,-2.7578,-2.7596,-2.7633,-2.7675,-2.7723,-2.7753,-2.78,-2.7866,-2.7878,-2.7893,-2.7897,-2.79,-2.7905,-2.7942,-2.7949,-2.7873,-2.7873,-2.7873,0,0,-2.7266,-2.7311,-2.734,-2.7418,-2.7455,-2.7504,-2.75,-2.7552,-2.7588,-2.7603,-2.7666,-2.7694,-2.7743,-2.7808,-2.7838,-2.7832,-2.793,-2.7905,-2.7907,-2.7911,-2.7947,-2.7954,-2.796,-2.7875,-2.7875,-2.7874,0,0,-2.7311,-2.7351,-2.7403,-2.7441,-2.7498,-2.7526,-2.7538,-2.7597,-2.7617,-2.768,-2.7693,-2.7735,-2.7817,-2.7852,-2.7881,-2.7942,-2.7947,-2.7956,-2.7977,-2.8012,-2.8018,-2.8024,-2.8045,-2.8052,-2.7961,-2.7961,-2.7961,0,-2.7317,-2.7395,-2.7427,-2.748,-2.7514,-2.7533,-2.7585,-2.7619,-2.7686,-2.7708,-2.7701,-2.7805,-2.7839,-2.7913,-2.7928,-2.795,-2.7964,-2.7949,-2.8015,-2.8021,-2.8026,-2.8047,-2.8055,-2.7962,-2.7962,-2.7962,-2.7962,0,-2.7399,-2.7452,-2.7487,-2.7556,-2.7593,-2.7645,-2.7683,-2.7717,-2.7732,-2.776,-2.7824,-2.7867,-2.7923,-2.7942,-2.7956,-2.8017,-2.8012,-2.8009,-2.7995,-2.8034,-2.8053,-2.8062,-2.7963,-2.7962,-2.7962,-2.7962,0,0,-2.7436,-2.7525,-2.7537,-2.7569,-2.7634,-2.7675,-2.7727,-2.7785,-2.7812,-2.7859,-2.7902,-2.7972,-2.7971,-2.8003,-2.8021,-2.8053,-2.8098,-2.8047,-2.8048,-2.8054,-2.8167,-2.8168,-2.8177,-2.8103,-2.8104,-2.8106,-2.8163,0,-2.7489,-2.7586,-2.7618,-2.7697,-2.7747,-2.7767,-2.7812,-2.7856,-2.7884,-2.7928,-2.7958,-2.8007,-2.8002,-2.8022,-2.8054,-2.8086,-2.8121,-2.8082,-2.8141,-2.8143,-2.8127,-2.8187,-2.8187,-2.8239,-2.8171,-2.8172,-2.8173,0,-2.7563,-2.7615,-2.77,-2.776,-2.7782,-2.7823,-2.7878,-2.7921,-2.7971,-2.7989,-2.8026,-2.8043,-2.8096,-2.808,-2.8153,-2.8126,-2.8152,-2.8171,-2.8174,-2.8179,-2.8159,-2.8193,-2.8257,-2.8264,-2.8186,-2.8185,-2.8184,0,-2.7581,-2.7672,-2.7735,-2.7761,-2.7833,-2.7861,-2.7892,-2.7941,-2.7974,-2.8022,-2.8043,-2.8095,-2.8124,-2.8163,-2.8192,-2.8178,-2.8263,-2.8249,-2.8277,-2.8277,-2.8293,-2.8291,-2.8361,-2.8312,-2.8312,-2.8311,-2.8311,0,-2.7636,-2.7687,-2.7744,-2.7783,-2.784,-2.7876,-2.7931,-2.7962,-2.8006,-2.8049,-2.8069,-2.8109,-2.8146,-2.819,-2.8213,-2.827,-2.8282,-2.8297,-2.8302,-2.8295,-2.8293,-2.8311,-2.8308,-2.8314,-2.8313,-2.8313,-2.8312,0,-2.7665,-2.7706,-2.7776,-2.784,-2.7857,-2.7896,-2.795,-2.7987,-2.8017,-2.8072,-2.8086,-2.8132,-2.8185,-2.8219,-2.8286,-2.8301,-2.8363,-2.8368,-2.8347,-2.8349,-2.8376,-2.8373,-2.8459,-2.8471,-2.8415,-2.8415,-2.8416,0,-2.7697,-2.7738,-2.7807,-2.7839,-2.7871,-2.7922,-2.7957,-2.7993,-2.8028,-2.8089,-2.8118,-2.8174,-2.822,-2.8303,-2.8341,-2.8392,-2.8397,-2.8424,-2.8405,-2.8396,-2.8396,-2.8393,-2.8397,-2.8426,-2.8427,-2.8427,-2.8427,0,-2.7749,-2.7768,-2.7819,-2.7877,-2.7919,-2.7966,-2.8013,-2.8037,-2.8081,-2.8119,-2.8176,-2.8212,-2.8282,-2.8335,-2.8391,-2.8419,-2.843,-2.8434,-2.8443,-2.8435,-2.8421,-2.8428,-2.8355,-2.8431,-2.8431,-2.843,-2.843,-2.843,-2.778,-2.7817,-2.7872,-2.7929,-2.7969,-2.8012,-2.8051,-2.8087,-2.8136,-2.8198,-2.8216,-2.8274,-2.8323,-2.8398,-2.8429,-2.8473,-2.847,-2.8483,-2.8486,-2.8489,-2.8489,-2.8416,-2.8483,-2.8483,-2.8483,-2.8483,-2.8483,0,-2.7832,-2.7869,-2.7921,-2.7988,-2.8032,-2.8043,-2.8095,-2.813,-2.8183,-2.8229,-2.8275,-2.8339,-2.8392,-2.8435,-2.8489,-2.8516,-2.8523,-2.8529,-2.8527,-2.8533,-2.8489,-2.8476,-2.8523,-2.8523,-2.8523,-2.8523,-2.8523,-2.8523,-2.7864,-2.7928,-2.7953,-2.8037,-2.8073,-2.8133,-2.8162,-2.8202,-2.8239,-2.8312,-2.8357,-2.8386,-2.843,-2.8488,-2.8537,-2.8548,-2.8566,-2.8571,-2.8583,-2.8541,-2.8536,-2.8532,-2.8519,-2.8575,-2.8575,-2.8623,-2.8624,-2.8624]}]]